Tracking 35035 objects as of 16-Aug-2026
HD Live streaming from Space Station
objects crossing your sky now

STARLINK-32409

Track STARLINK-32409 now!
10-day predictions
STARLINK-32409 is classified as:


NORAD ID: 61591
Int'l Code: 2024-187T
Launch date: October 18, 2024
Source: United States (US)
Launch site: AIR FORCE EASTERN TEST RANGE (AFETR)
Your satellite tracking list
Your tracking list is empty




NASA's NSSDC Master Catalog

Two Line Element Set (TLE):
1 61591U 24187T   26228.15098544 -.00002589  00000-0 -65500-4 0  9996
2 61591  53.1623  26.8919 0001277 103.7292 256.3853 15.34404309103740
Source of the keplerian elements: AFSPC